When you browse on this site, cookies collect data to enhance your experience and personalize the content and advertising you see.
Visit our Privacy Policy to learn more. By continuing to use the site, you agree to this use of cookies and data.
  • en Suisse
  • Liste des pays
  • À 7 jours
  • Température de l'eau
  • Carte météo
  • Widgets météo
  • user-avatar
    Se connecter

    Météo par heure à Podberezkino

    Ce jour, 20 Août, Mardi

    Heure Température Précipitation Vent Pression Humidité
    00:00 +17°C° 0 mm 2 m/s 756 mmHg 92%
    01:00 +18°C° 0 mm 1 m/s 756 mmHg 90%
    02:00 +16°C° 0 mm 1 m/s 757 mmHg 88%
    03:00 +15°C° 0 mm 1 m/s 757 mmHg 89%
    04:00 +14°C° 0 mm 1 m/s 758 mmHg 90%
    05:00 +13°C° 0 mm 1 m/s 758 mmHg 91%
    06:00 +15°C° 0 mm 1 m/s 758 mmHg 86%
    07:00 +16°C° 0 mm 1 m/s 759 mmHg 81%
    08:00 +18°C° 0 mm 1 m/s 759 mmHg 76%
    09:00 +20°C° 0 mm 1 m/s 759 mmHg 68%
    10:00 +22°C° 0 mm 1 m/s 759 mmHg 59%
    11:00 +23°C° 0 mm 2 m/s 759 mmHg 50%
    12:00 +23°C° 0 mm 2 m/s 760 mmHg 51%
    13:00 +24°C° 0 mm 2 m/s 760 mmHg 51%
    14:00 +24°C° 0 mm 2 m/s 760 mmHg 51%
    15:00 +24°C° 0 mm 2 m/s 760 mmHg 53%
    16:00 +24°C° 0 mm 1 m/s 760 mmHg 54%
    17:00 +24°C° 0 mm 1 m/s 760 mmHg 56%
    18:00 +22°C° 0 mm 1 m/s 760 mmHg 62%
    19:00 +20°C° 0 mm 1 m/s 760 mmHg 69%
    20:00 +19°C° 0 mm 1 m/s 760 mmHg 75%
    21:00 +18°C° 0 mm 1 m/s 761 mmHg 78%
    22:00 +16°C° 0 mm 1 m/s 761 mmHg 81%
    23:00 +15°C° 0 mm 1 m/s 761 mmHg 83%

    Demain, 21 Août, Mercredi

    Heure Température Précipitation Vent Pression Humidité
    00:00 +15°C° 0 mm 1 m/s 761 mmHg 84%
    01:00 +14°C° 0 mm 0 m/s 761 mmHg 85%
    02:00 +14°C° 0 mm 0 m/s 761 mmHg 85%
    03:00 +15°C° 0 mm 1 m/s 761 mmHg 85%
    04:00 +15°C° 0 mm 1 m/s 761 mmHg 85%
    05:00 +15°C° 0 mm 1 m/s 761 mmHg 85%
    06:00 +16°C° 0 mm 1 m/s 761 mmHg 82%
    07:00 +18°C° 0 mm 1 m/s 761 mmHg 79%
    08:00 +19°C° 0 mm 1 m/s 761 mmHg 75%
    09:00 +20°C° 0.1 mm 1 m/s 761 mmHg 76%
    10:00 +20°C° 0.1 mm 1 m/s 761 mmHg 77%
    11:00 +20°C° 0.1 mm 1 m/s 761 mmHg 78%
    12:00 +20°C° 0.1 mm 1 m/s 761 mmHg 80%
    13:00 +20°C° 0.1 mm 1 m/s 761 mmHg 82%
    14:00 +19°C° 0.1 mm 1 m/s 760 mmHg 83%
    15:00 +19°C° 0.1 mm 1 m/s 760 mmHg 86%
    16:00 +18°C° 0.1 mm 1 m/s 760 mmHg 89%
    17:00 +18°C° 0.1 mm 1 m/s 759 mmHg 91%
    18:00 +16°C° 1.5 mm 2 m/s 759 mmHg 93%
    19:00 +15°C° 1.5 mm 2 m/s 759 mmHg 95%
    20:00 +15°C° 1.5 mm 2 m/s 759 mmHg 98%
    21:00 +15°C° 1 mm 2 m/s 760 mmHg 98%
    22:00 +14°C° 1 mm 2 m/s 760 mmHg 97%
    23:00 +14°C° 1 mm 1 m/s 760 mmHg 97%

    Après-demain, 22 Août, Jeudi

    Heure Température Précipitation Vent Pression Humidité
    00:00 +14°C° 0.1 mm 2 m/s 760 mmHg 97%
    01:00 +13°C° 0.1 mm 2 m/s 761 mmHg 97%
    02:00 +13°C° 0.1 mm 2 m/s 761 mmHg 97%
    03:00 +12°C° 0 mm 2 m/s 761 mmHg 97%
    04:00 +12°C° 0 mm 2 m/s 761 mmHg 98%
    05:00 +10°C° 0 mm 2 m/s 761 mmHg 98%
    06:00 +13°C° 0 mm 2 m/s 761 mmHg 95%
    07:00 +14°C° 0 mm 2 m/s 761 mmHg 92%
    08:00 +15°C° 0 mm 2 m/s 762 mmHg 89%
    09:00 +17°C° 0 mm 2 m/s 762 mmHg 79%
    10:00 +19°C° 0 mm 2 m/s 762 mmHg 69%
    11:00 +20°C° 0 mm 2 m/s 762 mmHg 59%
    12:00 +21°C° 0 mm 2 m/s 762 mmHg 56%
    13:00 +21°C° 0 mm 2 m/s 762 mmHg 54%
    14:00 +23°C° 0 mm 2 m/s 762 mmHg 51%
    15:00 +23°C° 0 mm 2 m/s 762 mmHg 55%
    16:00 +23°C° 0 mm 2 m/s 761 mmHg 58%
    17:00 +23°C° 0 mm 2 m/s 761 mmHg 61%
    18:00 +20°C° 0 mm 2 m/s 762 mmHg 69%
    19:00 +18°C° 0 mm 2 m/s 762 mmHg 76%
    20:00 +16°C° 0 mm 2 m/s 762 mmHg 83%
    21:00 +15°C° 0 mm 2 m/s 762 mmHg 85%
    22:00 +14°C° 0 mm 1 m/s 763 mmHg 87%
    23:00 +13°C° 0 mm 1 m/s 763 mmHg 89%

    23 Août, Vendredi

    Heure Température Précipitation Vent Pression Humidité
    00:00 +12°C° 0 mm 1 m/s 763 mmHg 88%
    01:00 +12°C° 0 mm 1 m/s 763 mmHg 87%
    02:00 +12°C° 0 mm 1 m/s 763 mmHg 87%
    03:00 +12°C° 0 mm 1 m/s 763 mmHg 87%
    04:00 +11°C° 0 mm 1 m/s 763 mmHg 86%
    05:00 +11°C° 0 mm 1 m/s 763 mmHg 86%
    06:00 +13°C° 0 mm 1 m/s 763 mmHg 81%
    07:00 +14°C° 0 mm 1 m/s 763 mmHg 76%
    08:00 +16°C° 0 mm 1 m/s 763 mmHg 71%
    09:00 +18°C° 0 mm 2 m/s 763 mmHg 66%
    10:00 +19°C° 0 mm 2 m/s 763 mmHg 60%
    11:00 +21°C° 0 mm 3 m/s 764 mmHg 55%
    12:00 +21°C° 0 mm 3 m/s 763 mmHg 53%
    13:00 +22°C° 0 mm 3 m/s 763 mmHg 50%
    14:00 +22°C° 0 mm 3 m/s 763 mmHg 48%
    15:00 +22°C° 0.1 mm 3 m/s 763 mmHg 53%
    16:00 +21°C° 0.1 mm 2 m/s 763 mmHg 58%
    17:00 +21°C° 0.1 mm 2 m/s 762 mmHg 64%
    18:00 +19°C° 0 mm 2 m/s 763 mmHg 70%
    19:00 +18°C° 0 mm 1 m/s 763 mmHg 76%
    20:00 +15°C° 0 mm 1 m/s 763 mmHg 82%
    21:00 +15°C° 0 mm 1 m/s 763 mmHg 84%
    22:00 +14°C° 0 mm 1 m/s 763 mmHg 85%
    23:00 +14°C° 0 mm 1 m/s 763 mmHg 86%

    24 Août, Samedi

    Heure Température Précipitation Vent Pression Humidité
    00:00 +14°C° 0 mm 2 m/s 763 mmHg 86%
    01:00 +14°C° 0 mm 2 m/s 763 mmHg 86%
    02:00 +14°C° 0 mm 2 m/s 763 mmHg 85%
    03:00 +14°C° 0 mm 2 m/s 763 mmHg 85%
    04:00 +13°C° 0 mm 3 m/s 762 mmHg 86%
    05:00 +13°C° 0 mm 3 m/s 762 mmHg 86%
    06:00 +14°C° 0 mm 3 m/s 762 mmHg 82%
    07:00 +16°C° 0 mm 3 m/s 762 mmHg 79%
    08:00 +17°C° 0 mm 3 m/s 762 mmHg 76%
    09:00 +19°C° 0 mm 4 m/s 762 mmHg 71%
    10:00 +20°C° 0 mm 4 m/s 762 mmHg 65%
    11:00 +21°C° 0 mm 4 m/s 762 mmHg 60%
    12:00 +22°C° 0 mm 4 m/s 761 mmHg 57%
    13:00 +23°C° 0 mm 4 m/s 761 mmHg 54%
    14:00 +25°C° 0 mm 5 m/s 761 mmHg 51%
    15:00 +25°C° 0 mm 4 m/s 761 mmHg 54%
    16:00 +24°C° 0 mm 3 m/s 760 mmHg 58%
    17:00 +24°C° 0 mm 3 m/s 760 mmHg 61%
    18:00 +21°C° 0 mm 3 m/s 760 mmHg 67%
    19:00 +19°C° 0 mm 2 m/s 760 mmHg 73%
    20:00 +18°C° 0 mm 2 m/s 760 mmHg 79%
    21:00 +17°C° 0 mm 2 m/s 760 mmHg 82%
    22:00 +16°C° 0 mm 2 m/s 760 mmHg 85%
    23:00 +16°C° 0 mm 2 m/s 760 mmHg 87%

    25 Août, Dimanche

    Heure Température Précipitation Vent Pression Humidité
    00:00 +15°C° 0 mm 2 m/s 760 mmHg 90%
    01:00 +15°C° 0 mm 2 m/s 760 mmHg 92%
    02:00 +14°C° 0 mm 2 m/s 760 mmHg 95%
    03:00 +14°C° 0 mm 2 m/s 760 mmHg 95%
    04:00 +15°C° 0 mm 2 m/s 760 mmHg 94%
    05:00 +15°C° 0 mm 2 m/s 760 mmHg 94%
    06:00 +16°C° 0 mm 2 m/s 760 mmHg 91%
    07:00 +16°C° 0 mm 2 m/s 760 mmHg 88%
    08:00 +17°C° 0 mm 2 m/s 760 mmHg 85%
    09:00 +18°C° 0 mm 2 m/s 761 mmHg 80%
    10:00 +19°C° 0 mm 2 m/s 761 mmHg 74%
    11:00 +21°C° 0 mm 1 m/s 761 mmHg 69%
    12:00 +22°C° 0.1 mm 1 m/s 761 mmHg 66%
    13:00 +22°C° 0.1 mm 1 m/s 760 mmHg 63%
    14:00 +23°C° 0.1 mm 2 m/s 760 mmHg 61%
    15:00 +23°C° 0.1 mm 1 m/s 760 mmHg 63%
    16:00 +22°C° 0.1 mm 1 m/s 760 mmHg 66%
    17:00 +22°C° 0.1 mm 1 m/s 760 mmHg 69%
    18:00 +20°C° 0 mm 1 m/s 760 mmHg 72%
    19:00 +18°C° 0 mm 1 m/s 760 mmHg 75%
    20:00 +16°C° 0 mm 1 m/s 760 mmHg 78%
    21:00 +15°C° 0 mm 1 m/s 760 mmHg 77%
    22:00 +14°C° 0 mm 1 m/s 760 mmHg 76%
    23:00 +14°C° 0 mm 1 m/s 760 mmHg 75%
    Voir plus